STARLINK-35883

Last updated on Fri Dec 19 2025 00:02:08 GMT+0000 (Coordinated Universal Time)

1 66892U 25283Q 25352.58336806 -.01395887 00000+0 -88909-2 0 9995 2 66892 53.1551 44.3818 0000879 67.6429 82.5938 15.78423144 3309
UTC large
Height (km)
Speed (km/s)
/
Latitude / Longitude
Inclination (degrees)
Orbital Period (minutes)
Azimuth
Elevation
Range (km)
Doppler Factor

Next 0 passes for location: London (51.5072 / 0.1276)

Sorry there are no passes over London.